TimeCST,TemperatureF,Dew PointF,Humidity,Sea Level PressureIn,VisibilityMPH,Wind Direction,Wind SpeedMPH,Gust SpeedMPH,PrecipitationIn,Events,Conditions,WindDirDegrees,DateUTC
12:53 AM,61.0,53.1,75,30.04,10.0,NNW,3.5,-,N/A,,Partly Cloudy,340,2012-11-06 06:53:00
1:53 AM,57.9,51.1,78,30.05,10.0,Calm,Calm,-,N/A,,Clear,0,2012-11-06 07:53:00
2:53 AM,59.0,43.0,55,30.07,10.0,North,5.8,-,N/A,,Clear,10,2012-11-06 08:53:00
3:53 AM,54.0,44.1,69,30.07,10.0,Calm,Calm,-,N/A,,Clear,0,2012-11-06 09:53:00
4:53 AM,48.9,45.0,86,30.08,10.0,Calm,Calm,-,N/A,,Clear,0,2012-11-06 10:53:00
5:53 AM,48.9,46.0,90,30.09,10.0,Calm,Calm,-,N/A,,Clear,0,2012-11-06 11:53:00
6:53 AM,51.1,44.1,77,30.12,10.0,Calm,Calm,-,N/A,,Clear,0,2012-11-06 12:53:00
7:53 AM,55.9,44.1,64,30.14,10.0,NNE,4.6,-,N/A,,Clear,20,2012-11-06 13:53:00
8:53 AM,60.1,46.0,60,30.15,10.0,NNE,4.6,-,N/A,,Clear,20,2012-11-06 14:53:00
9:53 AM,63.0,45.0,52,30.16,10.0,NW,4.6,-,N/A,,Clear,320,2012-11-06 15:53:00
10:53 AM,66.0,43.0,43,30.15,10.0,NNW,5.8,-,N/A,,Clear,340,2012-11-06 16:53:00
11:53 AM,69.1,43.0,39,30.13,10.0,North,5.8,-,N/A,,Clear,350,2012-11-06 17:53:00
12:53 PM,1.9,-9999,N/A,30.11,-9999.0,North,5.8,-,N/A,,Clear,350,2012-11-06 18:53:00
1:53 PM,1.9,-9999,N/A,30.09,-9999.0,NW,6.9,-,N/A,,Clear,310,2012-11-06 19:53:00
2:53 PM,-9999,-9999,N/A,30.08,-9999.0,North,6.9,-,N/A,,Clear,350,2012-11-06 20:53:00
3:12 PM,73.4,42.8,33,30.08,2.0,NW,8.1,-,N/A,,Haze,320,2012-11-06 21:12:00
3:21 PM,73.4,41.0,31,30.08,10.0,West,6.9,-,N/A,,Clear,280,2012-11-06 21:21:00
3:53 PM,73.0,41.0,31,30.07,10.0,NNW,5.8,-,N/A,,Clear,330,2012-11-06 21:53:00
4:53 PM,71.1,39.9,32,30.07,10.0,NNW,4.6,-,N/A,,Clear,340,2012-11-06 22:53:00
5:53 PM,59.0,46.0,62,30.07,10.0,Calm,Calm,-,N/A,,Clear,0,2012-11-06 23:53:00
6:53 PM,55.0,48.9,80,30.09,10.0,Calm,Calm,-,N/A,,Clear,0,2012-11-07 00:53:00
7:53 PM,53.1,50.0,89,30.10,10.0,Calm,Calm,-,N/A,,Clear,0,2012-11-07 01:53:00
8:53 PM,53.1,50.0,89,30.11,10.0,Calm,Calm,-,N/A,,Clear,0,2012-11-07 02:53:00
9:53 PM,52.0,50.0,93,30.11,10.0,Calm,Calm,-,N/A,,Clear,0,2012-11-07 03:53:00
10:53 PM,50.0,50.0,100,30.11,10.0,Calm,Calm,-,N/A,,Clear,0,2012-11-07 04:53:00
11:53 PM,50.0,50.0,100,30.11,10.0,Calm,Calm,-,N/A,,Clear,0,2012-11-07 05:53:00